Tracking 20942 objects as of 15-Jul-2020
HD Live streaming from Space Station
objects crossing your sky now

SL-12 R/B(AUX MOTOR)

Track SL-12 R/B(AUX MOTOR) now!
10-day predictions


NORAD ID: 19856
Int'l Code: 1989-001H
Perigee: 652.3 km
Apogee: 18,786.6 km
Inclination: 65.2 °
Period: 338.5 minutes
Semi major axis: 16090 km
RCS: 0.7416 m2 (medium)
Launch date: January 10, 1989
Source: Commonwealth of Independent States (former USSR) (CIS)
Launch site: TYURATAM MISSILE AND SPACE COMPLEX (TTMTR)

Note: This is a ROCKET BODY
aabbcc
Your satellite tracking list
Your tracking list is empty




NASA's NSSDC Master Catalog

Two Line Element Set (TLE):
1 19856U 89001H   20195.99871444 -.00000004 +00000-0 -83433-5 0  9992
2 19856 065.1705 049.3023 5635095 137.9044 282.9707 04.25353543488477
Source of the keplerian elements: AFSPC